Location: Unspecified
(0.0000°N, 0.0000°E)
Time: 14:58:11
(UTC+00:00)

STARLINK-33984 - Visible Passes

Search period start: 15 June 2025 00:00
Search period end: 25 June 2025 00:00
Orbit: 462 x 464 km, 43.0° (Epoch: 15 June)

Date Brightness Start Highest point End Pass type
(mag) Time Alt. Az. Time Alt. Az. Time Alt. Az.
20 Jun 5.9 19:32:44 10° SSW 19:32:52 11° SSW 19:32:52 11° SSW visible
21 Jun 3.5 19:17:44 10° SSW 19:21:14 46° SE 19:21:14 46° SE visible
22 Jun 3.2 19:05:55 10° SW 19:09:34 71° SE 19:13:22 10° NE visible
23 Jun 3.6 18:57:22 10° SW 19:01:00 68° NW 19:04:47 10° NE visible
24 Jun 7.0 05:15:20 10° NNE 05:17:49 14° NE 05:20:16 10° ENE visible
24 Jun 5.0 18:52:12 10° WSW 18:55:37 37° NW 18:59:09 10° NNE visible
